C/2019 B3 ( PanSTARRS )

Japanese version
Home page
Updated on February 21, 2021

---------------------------------------------------------------------

* Profile

Discovery Date January 24, 2019
Magnitude 19.6 mag
Discoverer Pan-STARRS 1 telescope (Haleakala)

* Pictures

* Orbital Elements

Epoch 2021 Jan. 26.0 TT = JDT 2459240.5
T 2021 Jan. 20.05693 TT                                 Rudenko
q   6.8229152            (2000.0)            P               Q
z  -0.0003709      Peri.  263.91459     -0.11683038     +0.99283314
 +/-0.0000034      Node   358.42831     +0.00237939     -0.02505337
e   1.0025307      Incl.   66.53622     -0.99314903     -0.11685324
From 96 observations 2019 Jan. 24-2020 May 21, mean residual 0".6.

* Magnitudes Graph

        m1 = 5.5 + 5 log d + 10.0 log r

---------------------------------------------------------------------

The orbital elements are published on M.P.E.C. 2020-M114.
The magnitudes graphs are made with Comet for Windows.

---------------------------------------------------------------------

Copyright(C) Seiichi Yoshida (comet@aerith.net). All rights reserved.